Dewpoint
36 39 41 42 47 50 58 59 60 61 63 63 62 62 62 60 60 61 59 59 60 59
36 36 39 41 44 48 52 56 58 59 59 60 60 61 59 57 56 58 58 58 60 60
36 35 36 41 41 43 47 51 56 58 58 58 58 58 57 56 56 56 56 58 58 59
35 36 35 39 40 40 45 50 52 53 56 58 59 58 56 56 56 56 56 57 58 58
35 35 35 36 39 40 40 46 47 48 49 50 53 55 58 58 58 58 58 58 59 59
34 34 34 34 37 39 39 40 42 43 45 46 47 49 48 48 50 51 53 53 56 59
33 33 34 34 35 37 39 38 37 40 42 43 42 41 41 41 43 44 46 49 52 53
28 30 29 32 34 35 36 36 36 37 38 40 38 37 37 37 38 40 42 44 47 50
30 26 27 27 29 31 34 35 35 35 36 36 35 34 36 36 36 38 40 42 44 46
25 28 24 25 26 28 29 32 33 34 34 33 34 34 33 32 34 38 39 40 41 42
24 24 24 24 25 27 27 28 29 31 32 32 32 32 31 31 32 35 36 36 36 38
24 24 24 25 25 26 26 26 28 29 29 31 31 31 31 31 30 31 32 33 34 34
24 24 23 24 25 25 25 25 26 26 28 29 28 31 28 27 29 30 30 32 31 33
24 24 23 24 24 24 24 24 24 25 25 26 26 27 27 24 25 26 29 28 29 30
Wind_Speed
23 21 21 24 25 20 23 22 14 22 20 18 16 10 10 6 2 9 11 15 22 25
22 25 24 27 26 21 24 23 8 4 7 9 11 14 16 13 14 11 17 22 28 25
22 23 26 23 26 29 27 26 15 5 10 10 10 11 12 16 16 23 26 24 27 26
22 23 24 23 22 27 27 26 19 11 7 5 13 17 21 18 24 23 19 24 24 25
20 22 22 25 22 21 32 27 20 15 15 12 10 7 6 7 5 13 19 22 19 17
20 20 19 23 24 21 22 28 25 20 19 18 12 16 17 17 13 9 4 4 5 10
19 22 19 20 19 20 16 22 28 23 19 18 17 20 19 17 15 13 12 11 9 9
23 21 21 20 21 20 19 18 21 22 23 15 23 18 19 17 15 15 15 14 14 12
23 22 23 23 23 23 22 18 21 23 17 21 17 21 23 20 15 13 12 11 11 13
21 21 20 20 20 19 21 22 24 23 20 17 15 21 20 24 17 14 12 12 12 13
20 22 21 20 20 17 16 15 15 14 16 15 12 16 22 23 15 13 13 14 13 15
22 21 19 18 20 19 18 17 15 14 14 13 16 23 27 24 17 16 15 16 16 16
23 22 21 21 20 19 16 16 16 17 17 17 18 20 27 26 18 16 16 14 14 13
21 22 21 20 18 19 18 17 16 16 15 17 18 18 24 26 20 20 19 15 15 14
Wind_Direction
332 328 327 324 319 324 323 275 250 239 237 235 239 214 188 138 208 180 182 223 224 225
334 335 328 330 324 339 343 331 228 198 166 141 143 141 147 163 173 190 231 237 232 224
332 335 331 326 336 353 336 336 350 195 183 189 191 186 184 195 208 204 218 227 230 222
332 335 334 335 337 2 334 328 325 10 27 148 196 197 200 208 220 221 228 232 231 229
332 332 346 326 341 8 348 321 336 21 19 23 34 19 171 192 218 223 226 232 228 230
342 336 342 337 340 351 352 337 344 13 13 21 5 32 37 32 26 27 344 347 331 259
344 339 347 339 339 345 3 341 352 14 14 10 50 33 18 16 2 354 336 339 329 306
340 346 347 345 349 359 354 360 333 16 9 346 48 32 22 8 352 340 335 332 327 316
343 346 351 347 358 356 353 351 6 12 354 6 41 23 22 2 338 327 322 324 327 319
349 345 351 352 356 352 355 356 358 358 1 357 6 30 20 357 330 328 333 339 341 334
351 347 350 356 351 356 357 357 5 359 356 354 15 28 15 356 340 334 351 338 333 330
352 350 350 358 350 357 357 7 6 6 348 352 12 21 19 3 353 345 343 339 334 324
349 348 352 356 354 357 8 2 356 356 357 12 12 21 20 12 357 341 339 325 323 323
346 345 355 350 351 355 358 355 1 2 3 5 5 2 19 5 352 343 333 333 333 326